When you browse on this site, cookies collect data to enhance your experience and personalize the content and advertising you see.
Visit our Privacy Policy to learn more. By continuing to use the site, you agree to this use of cookies and data.
  • In United Kingdom
  • List of Countries
  • For 7 days
  • Water Temperature
  • Weather Map
  • Weather Widgets
  • user-avatar
    Login

    Hourly Weather Dupli

    Today, 25 August, Sunday

    Time Temperature Precipitation Wind Pressure Humidity
    00:00 +14°C° 0 mm 1 mps 761 mmHg 90%
    01:00 +13°C° 0 mm 1 mps 761 mmHg 91%
    02:00 +13°C° 0 mm 1 mps 761 mmHg 93%
    03:00 +12°C° 0 mm 1 mps 761 mmHg 92%
    04:00 +12°C° 0 mm 1 mps 762 mmHg 92%
    05:00 +10°C° 0 mm 0 mps 762 mmHg 92%
    06:00 +13°C° 0 mm 1 mps 762 mmHg 85%
    07:00 +15°C° 0 mm 1 mps 762 mmHg 78%
    08:00 +18°C° 0 mm 1 mps 762 mmHg 69%
    09:00 +20°C° 0 mm 1 mps 762 mmHg 63%
    10:00 +21°C° 0 mm 1 mps 762 mmHg 58%
    11:00 +23°C° 0 mm 1 mps 762 mmHg 52%
    12:00 +23°C° 0 mm 1 mps 762 mmHg 50%
    13:00 +24°C° 0 mm 1 mps 762 mmHg 48%
    14:00 +24°C° 0 mm 1 mps 762 mmHg 46%
    15:00 +24°C° 0 mm 1 mps 762 mmHg 50%
    16:00 +23°C° 0 mm 1 mps 762 mmHg 53%
    17:00 +23°C° 0 mm 1 mps 762 mmHg 57%
    18:00 +21°C° 0 mm 1 mps 762 mmHg 63%
    19:00 +18°C° 0 mm 1 mps 762 mmHg 69%
    20:00 +15°C° 0 mm 1 mps 762 mmHg 76%
    21:00 +15°C° 0 mm 1 mps 762 mmHg 78%
    22:00 +14°C° 0 mm 1 mps 762 mmHg 81%
    23:00 +14°C° 0 mm 2 mps 762 mmHg 83%

    Tomorrow, 26 August, Monday

    Time Temperature Precipitation Wind Pressure Humidity
    00:00 +13°C° 0 mm 1 mps 762 mmHg 84%
    01:00 +13°C° 0 mm 1 mps 762 mmHg 85%
    02:00 +13°C° 0 mm 1 mps 762 mmHg 86%
    03:00 +13°C° 0 mm 1 mps 762 mmHg 89%
    04:00 +12°C° 0 mm 1 mps 762 mmHg 91%
    05:00 +12°C° 0 mm 1 mps 762 mmHg 94%
    06:00 +14°C° 0 mm 1 mps 762 mmHg 88%
    07:00 +16°C° 0 mm 1 mps 761 mmHg 82%
    08:00 +19°C° 0 mm 1 mps 761 mmHg 76%
    09:00 +20°C° 0 mm 2 mps 761 mmHg 69%
    10:00 +21°C° 0 mm 2 mps 761 mmHg 62%
    11:00 +24°C° 0 mm 2 mps 760 mmHg 55%
    12:00 +25°C° 0 mm 2 mps 760 mmHg 55%
    13:00 +25°C° 0 mm 2 mps 760 mmHg 55%
    14:00 +26°C° 0 mm 3 mps 760 mmHg 54%
    15:00 +25°C° 0 mm 2 mps 760 mmHg 60%
    16:00 +25°C° 0 mm 2 mps 759 mmHg 65%
    17:00 +24°C° 0 mm 2 mps 759 mmHg 71%
    18:00 +23°C° 0 mm 2 mps 759 mmHg 77%
    19:00 +20°C° 0 mm 2 mps 759 mmHg 83%
    20:00 +19°C° 0 mm 2 mps 759 mmHg 88%
    21:00 +18°C° 0 mm 2 mps 759 mmHg 90%
    22:00 +18°C° 0 mm 2 mps 759 mmHg 92%
    23:00 +17°C° 0 mm 2 mps 759 mmHg 93%

    Day after tomorrow, 27 August, Tuesday

    Time Temperature Precipitation Wind Pressure Humidity
    00:00 +16°C° 0 mm 1 mps 759 mmHg 93%
    01:00 +16°C° 0 mm 1 mps 759 mmHg 93%
    02:00 +15°C° 0 mm 1 mps 759 mmHg 93%
    03:00 +15°C° 0 mm 1 mps 759 mmHg 94%
    04:00 +14°C° 0 mm 1 mps 759 mmHg 95%
    05:00 +14°C° 0 mm 1 mps 759 mmHg 96%
    06:00 +15°C° 0 mm 1 mps 759 mmHg 92%
    07:00 +18°C° 0 mm 1 mps 759 mmHg 87%
    08:00 +18°C° 0 mm 2 mps 760 mmHg 82%
    09:00 +20°C° 0 mm 2 mps 760 mmHg 76%
    10:00 +21°C° 0 mm 2 mps 760 mmHg 69%
    11:00 +24°C° 0 mm 2 mps 760 mmHg 63%
    12:00 +25°C° 0 mm 2 mps 760 mmHg 60%
    13:00 +25°C° 0 mm 3 mps 760 mmHg 57%
    14:00 +26°C° 0 mm 3 mps 760 mmHg 55%
    15:00 +25°C° 0 mm 3 mps 760 mmHg 57%
    16:00 +25°C° 0 mm 2 mps 760 mmHg 59%
    17:00 +24°C° 0 mm 2 mps 759 mmHg 62%
    18:00 +21°C° 0 mm 2 mps 760 mmHg 68%
    19:00 +19°C° 0 mm 2 mps 760 mmHg 74%
    20:00 +18°C° 0 mm 1 mps 760 mmHg 80%
    21:00 +16°C° 0 mm 1 mps 760 mmHg 81%
    22:00 +15°C° 0 mm 1 mps 761 mmHg 82%
    23:00 +15°C° 0 mm 1 mps 761 mmHg 82%

    28 August, Wednesday

    Time Temperature Precipitation Wind Pressure Humidity
    00:00 +14°C° 0 mm 1 mps 761 mmHg 83%
    01:00 +14°C° 0 mm 1 mps 761 mmHg 84%
    02:00 +13°C° 0 mm 1 mps 761 mmHg 84%
    03:00 +13°C° 0 mm 1 mps 761 mmHg 86%
    04:00 +13°C° 0 mm 1 mps 761 mmHg 88%
    05:00 +12°C° 0 mm 1 mps 761 mmHg 89%
    06:00 +14°C° 0 mm 1 mps 762 mmHg 83%
    07:00 +15°C° 0 mm 1 mps 762 mmHg 77%
    08:00 +18°C° 0 mm 1 mps 762 mmHg 70%
    09:00 +18°C° 0 mm 2 mps 762 mmHg 64%
    10:00 +20°C° 0 mm 2 mps 762 mmHg 58%
    11:00 +21°C° 0 mm 2 mps 762 mmHg 51%
    12:00 +23°C° 0 mm 2 mps 762 mmHg 51%
    13:00 +23°C° 0 mm 2 mps 762 mmHg 51%
    14:00 +23°C° 0 mm 2 mps 761 mmHg 51%
    15:00 +23°C° 0 mm 2 mps 761 mmHg 55%
    16:00 +21°C° 0 mm 2 mps 761 mmHg 60%
    17:00 +21°C° 0 mm 2 mps 761 mmHg 64%
    18:00 +19°C° 0 mm 2 mps 761 mmHg 69%
    19:00 +17°C° 0 mm 2 mps 761 mmHg 74%
    20:00 +15°C° 0 mm 2 mps 761 mmHg 80%
    21:00 +15°C° 0 mm 2 mps 761 mmHg 80%
    22:00 +14°C° 0 mm 2 mps 761 mmHg 80%
    23:00 +14°C° 0 mm 2 mps 761 mmHg 80%

    29 August, Thursday

    Time Temperature Precipitation Wind Pressure Humidity
    00:00 +13°C° 0 mm 2 mps 761 mmHg 81%
    01:00 +13°C° 0 mm 2 mps 761 mmHg 82%
    02:00 +12°C° 0 mm 2 mps 761 mmHg 83%
    03:00 +12°C° 0 mm 2 mps 761 mmHg 84%
    04:00 +12°C° 0 mm 2 mps 761 mmHg 85%
    05:00 +10°C° 0 mm 2 mps 761 mmHg 86%
    06:00 +13°C° 0 mm 2 mps 761 mmHg 79%
    07:00 +14°C° 0 mm 2 mps 761 mmHg 72%
    08:00 +16°C° 0 mm 2 mps 761 mmHg 65%
    09:00 +17°C° 0 mm 2 mps 761 mmHg 58%
    10:00 +19°C° 0 mm 3 mps 761 mmHg 51%
    11:00 +20°C° 0 mm 3 mps 761 mmHg 44%
    12:00 +21°C° 0 mm 3 mps 761 mmHg 42%
    13:00 +21°C° 0 mm 3 mps 760 mmHg 40%
    14:00 +22°C° 0 mm 3 mps 760 mmHg 38%
    15:00 +21°C° 0 mm 2 mps 760 mmHg 43%
    16:00 +21°C° 0 mm 2 mps 759 mmHg 49%
    17:00 +21°C° 0 mm 2 mps 759 mmHg 54%
    18:00 +18°C° 0 mm 2 mps 759 mmHg 61%
    19:00 +16°C° 0 mm 2 mps 759 mmHg 68%
    20:00 +14°C° 0 mm 2 mps 759 mmHg 75%
    21:00 +14°C° 0 mm 2 mps 759 mmHg 78%
    22:00 +13°C° 0 mm 2 mps 759 mmHg 81%
    23:00 +12°C° 0 mm 2 mps 759 mmHg 84%

    30 August, Friday

    Time Temperature Precipitation Wind Pressure Humidity
    00:00 +12°C° 0 mm 2 mps 759 mmHg 84%
    01:00 +10°C° 0 mm 2 mps 759 mmHg 85%
    02:00 +10°C° 0 mm 2 mps 759 mmHg 85%
    03:00 +10°C° 0 mm 2 mps 758 mmHg 85%
    04:00 +10°C° 0 mm 2 mps 758 mmHg 85%
    05:00 +9°C° 0 mm 2 mps 758 mmHg 85%
    06:00 +12°C° 0 mm 2 mps 758 mmHg 78%
    07:00 +12°C° 0 mm 3 mps 758 mmHg 71%
    08:00 +14°C° 0 mm 3 mps 758 mmHg 64%
    09:00 +17°C° 0 mm 3 mps 758 mmHg 58%
    10:00 +19°C° 0 mm 3 mps 758 mmHg 52%
    11:00 +21°C° 0 mm 4 mps 758 mmHg 45%
    12:00 +21°C° 0 mm 4 mps 758 mmHg 44%
    13:00 +22°C° 0 mm 4 mps 757 mmHg 43%
    14:00 +23°C° 0 mm 4 mps 757 mmHg 42%
    15:00 +22°C° 0 mm 3 mps 757 mmHg 47%
    16:00 +21°C° 0 mm 3 mps 757 mmHg 53%
    17:00 +21°C° 0 mm 2 mps 756 mmHg 59%
    18:00 +19°C° 0 mm 2 mps 756 mmHg 63%
    19:00 +17°C° 0 mm 2 mps 756 mmHg 68%
    20:00 +16°C° 0 mm 2 mps 756 mmHg 72%
    21:00 +15°C° 0 mm 2 mps 756 mmHg 73%
    22:00 +15°C° 0 mm 2 mps 756 mmHg 73%
    23:00 +15°C° 0 mm 2 mps 756 mmHg 74%
    Show more